• In Uzbekistan
  • List of Countries
  • For 7 days
  • Water Temperature
  • Satellite Maps
  • Weather Map
  • Weather Widgets
  • user-avatar
    Login

    Hourly Weather Witrylow

    Today, 25 April, Wednesday

    Time Temperature Precipitation Wind Pressure Humidity
    00:00 +13°C° 0 mm 2 mps 734 mmHg 82%
    01:00 +13°C° 0 mm 2 mps 733 mmHg 82%
    02:00 +13°C° 0 mm 2 mps 733 mmHg 85%
    03:00 +12°C° 0 mm 2 mps 733 mmHg 88%
    04:00 +12°C° 0 mm 2 mps 733 mmHg 90%
    05:00 +13°C° 0 mm 2 mps 733 mmHg 86%
    06:00 +15°C° 0 mm 2 mps 734 mmHg 81%
    07:00 +16°C° 0 mm 2 mps 734 mmHg 75%
    08:00 +18°C° 0 mm 3 mps 733 mmHg 69%
    09:00 +19°C° 0 mm 4 mps 733 mmHg 63%
    10:00 +21°C° 0 mm 4 mps 733 mmHg 57%
    11:00 +22°C° 0 mm 5 mps 732 mmHg 54%
    12:00 +23°C° 0 mm 5 mps 732 mmHg 50%
    13:00 +24°C° 0 mm 6 mps 731 mmHg 47%
    14:00 +23°C° 0 mm 6 mps 731 mmHg 49%
    15:00 +23°C° 0 mm 5 mps 731 mmHg 51%
    16:00 +23°C° 0 mm 5 mps 730 mmHg 52%
    17:00 +22°C° 0.2 mm 5 mps 730 mmHg 58%
    18:00 +20°C° 0.2 mm 4 mps 730 mmHg 65%
    19:00 +18°C° 0.2 mm 4 mps 730 mmHg 71%
    20:00 +18°C° 0.3 mm 4 mps 730 mmHg 74%
    21:00 +17°C° 0.3 mm 4 mps 730 mmHg 78%
    22:00 +15°C° 0.3 mm 4 mps 731 mmHg 81%
    23:00 +14°C° 0.1 mm 3 mps 731 mmHg 84%

    Tomorrow, 26 April, Thursday

    Time Temperature Precipitation Wind Pressure Humidity
    00:00 +13°C° 0.1 mm 3 mps 731 mmHg 87%
    01:00 +13°C° 0.1 mm 3 mps 732 mmHg 90%
    02:00 +13°C° 0 mm 2 mps 732 mmHg 91%
    03:00 +13°C° 0 mm 2 mps 732 mmHg 91%
    04:00 +12°C° 0 mm 2 mps 732 mmHg 91%
    05:00 +12°C° 0.1 mm 2 mps 733 mmHg 88%
    06:00 +13°C° 0.1 mm 2 mps 733 mmHg 85%
    07:00 +13°C° 0.1 mm 1 mps 733 mmHg 82%
    08:00 +13°C° 0.2 mm 1 mps 733 mmHg 82%
    09:00 +13°C° 0.2 mm 1 mps 733 mmHg 81%
    10:00 +14°C° 0.2 mm 1 mps 733 mmHg 81%
    11:00 +14°C° 0.2 mm 1 mps 733 mmHg 81%
    12:00 +14°C° 0.2 mm 1 mps 733 mmHg 81%
    13:00 +14°C° 0.2 mm 1 mps 733 mmHg 82%
    14:00 +14°C° 0.5 mm 1 mps 733 mmHg 84%
    15:00 +14°C° 0.5 mm 1 mps 733 mmHg 86%
    16:00 +14°C° 0.5 mm 1 mps 733 mmHg 87%
    17:00 +13°C° 0.1 mm 1 mps 733 mmHg 88%
    18:00 +13°C° 0.1 mm 1 mps 733 mmHg 89%
    19:00 +12°C° 0.1 mm 2 mps 734 mmHg 89%
    20:00 +10°C° 0 mm 2 mps 734 mmHg 88%
    21:00 +10°C° 0 mm 2 mps 734 mmHg 87%
    22:00 +9°C° 0 mm 3 mps 735 mmHg 85%
    23:00 +9°C° 0 mm 2 mps 735 mmHg 87%

    Day after tomorrow, 27 April, Friday

    Time Temperature Precipitation Wind Pressure Humidity
    00:00 +8°C° 0 mm 2 mps 735 mmHg 89%
    01:00 +7°C° 0 mm 2 mps 736 mmHg 90%
    02:00 +6°C° 0 mm 2 mps 736 mmHg 90%
    03:00 +6°C° 0 mm 2 mps 736 mmHg 91%
    04:00 +5°C° 0 mm 2 mps 736 mmHg 91%
    05:00 +6°C° 0 mm 2 mps 737 mmHg 86%
    06:00 +8°C° 0 mm 2 mps 737 mmHg 81%
    07:00 +9°C° 0 mm 2 mps 737 mmHg 75%
    08:00 +12°C° 0 mm 2 mps 737 mmHg 67%
    09:00 +13°C° 0 mm 2 mps 738 mmHg 58%
    10:00 +15°C° 0 mm 2 mps 738 mmHg 49%
    11:00 +16°C° 0 mm 2 mps 738 mmHg 46%
    12:00 +17°C° 0 mm 2 mps 737 mmHg 43%
    13:00 +19°C° 0 mm 1 mps 737 mmHg 41%
    14:00 +18°C° 0 mm 1 mps 737 mmHg 41%
    15:00 +18°C° 0 mm 1 mps 736 mmHg 42%
    16:00 +18°C° 0 mm 1 mps 736 mmHg 43%
    17:00 +15°C° 0 mm 1 mps 736 mmHg 50%
    18:00 +13°C° 0 mm 2 mps 736 mmHg 57%
    19:00 +12°C° 0 mm 2 mps 736 mmHg 65%
    20:00 +10°C° 0 mm 2 mps 736 mmHg 67%
    21:00 +9°C° 0 mm 2 mps 736 mmHg 70%
    22:00 +8°C° 0 mm 2 mps 736 mmHg 73%
    23:00 +8°C° 0 mm 2 mps 736 mmHg 73%

    28 April, Saturday

    Time Temperature Precipitation Wind Pressure Humidity
    00:00 +8°C° 0 mm 2 mps 736 mmHg 73%
    01:00 +8°C° 0 mm 2 mps 736 mmHg 73%
    02:00 +8°C° 0 mm 2 mps 736 mmHg 72%
    03:00 +7°C° 0 mm 2 mps 735 mmHg 71%
    04:00 +7°C° 0 mm 2 mps 735 mmHg 70%
    05:00 +9°C° 0 mm 2 mps 735 mmHg 67%
    06:00 +11°C° 0 mm 3 mps 735 mmHg 63%
    07:00 +13°C° 0 mm 3 mps 735 mmHg 59%
    08:00 +16°C° 0 mm 3 mps 735 mmHg 55%
    09:00 +18°C° 0 mm 3 mps 735 mmHg 51%
    10:00 +20°C° 0 mm 4 mps 735 mmHg 48%
    11:00 +21°C° 0 mm 4 mps 735 mmHg 47%
    12:00 +22°C° 0 mm 4 mps 735 mmHg 46%
    13:00 +23°C° 0 mm 4 mps 735 mmHg 45%
    14:00 +23°C° 0 mm 4 mps 735 mmHg 48%
    15:00 +24°C° 0 mm 3 mps 735 mmHg 51%
    16:00 +24°C° 0 mm 3 mps 734 mmHg 53%
    17:00 +21°C° 0 mm 3 mps 735 mmHg 62%
    18:00 +19°C° 0 mm 2 mps 735 mmHg 72%
    19:00 +17°C° 0 mm 2 mps 735 mmHg 81%
    20:00 +16°C° 0 mm 2 mps 735 mmHg 84%
    21:00 +16°C° 0 mm 2 mps 735 mmHg 88%
    22:00 +15°C° 0 mm 2 mps 735 mmHg 92%
    23:00 +15°C° 0 mm 2 mps 735 mmHg 92%

    29 April, Sunday

    Time Temperature Precipitation Wind Pressure Humidity
    00:00 +15°C° 0 mm 2 mps 735 mmHg 93%
    01:00 +14°C° 0 mm 1 mps 736 mmHg 93%
    02:00 +14°C° 0 mm 1 mps 736 mmHg 93%
    03:00 +14°C° 0 mm 1 mps 736 mmHg 94%
    04:00 +14°C° 0 mm 1 mps 736 mmHg 94%
    05:00 +15°C° 0 mm 1 mps 736 mmHg 90%
    06:00 +16°C° 0 mm 1 mps 736 mmHg 87%
    07:00 +19°C° 0 mm 1 mps 736 mmHg 83%
    08:00 +19°C° 0.4 mm 2 mps 736 mmHg 78%
    09:00 +21°C° 0.4 mm 2 mps 736 mmHg 73%
    10:00 +23°C° 0.4 mm 2 mps 736 mmHg 68%
    11:00 +24°C° 0.8 mm 2 mps 736 mmHg 66%
    12:00 +25°C° 0.8 mm 2 mps 735 mmHg 63%
    13:00 +25°C° 0.8 mm 2 mps 735 mmHg 60%
    14:00 +25°C° 0.5 mm 2 mps 734 mmHg 62%
    15:00 +25°C° 0.5 mm 2 mps 734 mmHg 63%
    16:00 +25°C° 0.5 mm 2 mps 734 mmHg 64%
    17:00 +23°C° 0.5 mm 2 mps 734 mmHg 71%
    18:00 +20°C° 0.5 mm 2 mps 734 mmHg 78%
    19:00 +18°C° 0.5 mm 2 mps 734 mmHg 86%
    20:00 +18°C° 0 mm 2 mps 733 mmHg 87%
    21:00 +17°C° 0 mm 2 mps 733 mmHg 88%
    22:00 +16°C° 0 mm 2 mps 733 mmHg 90%
    23:00 +16°C° 0 mm 2 mps 733 mmHg 90%

    30 April, Monday

    Time Temperature Precipitation Wind Pressure Humidity
    00:00 +15°C° 0 mm 2 mps 733 mmHg 89%
    01:00 +15°C° 0 mm 2 mps 732 mmHg 89%
    02:00 +15°C° 0 mm 2 mps 732 mmHg 89%
    03:00 +15°C° 0 mm 2 mps 732 mmHg 88%
    04:00 +14°C° 0 mm 2 mps 732 mmHg 88%
    05:00 +16°C° 0 mm 2 mps 732 mmHg 83%
    06:00 +17°C° 0 mm 2 mps 732 mmHg 79%
    07:00 +19°C° 0 mm 2 mps 732 mmHg 74%
    08:00 +21°C° 0 mm 3 mps 732 mmHg 66%
    09:00 +24°C° 0 mm 3 mps 732 mmHg 57%
    10:00 +25°C° 0 mm 3 mps 732 mmHg 48%
    11:00 +26°C° 0 mm 3 mps 732 mmHg 46%
    12:00 +27°C° 0 mm 3 mps 731 mmHg 43%
    13:00 +28°C° 0 mm 4 mps 731 mmHg 40%
    14:00 +27°C° 0 mm 3 mps 731 mmHg 43%
    15:00 +27°C° 0 mm 3 mps 731 mmHg 46%
    16:00 +27°C° 0 mm 3 mps 731 mmHg 49%
    17:00 +24°C° 0 mm 3 mps 730 mmHg 57%
    18:00 +21°C° 0 mm 2 mps 730 mmHg 65%
    19:00 +19°C° 0 mm 2 mps 730 mmHg 73%
    20:00 +18°C° 0 mm 2 mps 730 mmHg 74%
    21:00 +17°C° 0 mm 2 mps 730 mmHg 74%
    22:00 +16°C° 0 mm 2 mps 730 mmHg 75%
    23:00 +16°C° 0 mm 2 mps 730 mmHg 75%
    Show more